Showing default

ADRAS-J, 58992

Orbit data source: Space-Track

ADRAS-J, 58992 is a payload satellite owned by Astroscale (JP) in SSO that was launched on Sun, 18 Feb 2024 UTC via an ELECTRON launch vehicle from the Rocket Lab Launch Complex (RLLC). Payload-class satellites include a variety of spacecraft equipped with specific instruments for various scientific and technological missions. These include communications satellites like Starlink; space stations such as the ISS; scientific satellites like the Hubble; Earth observation satellites from companies like Planet Labs, Umbra, and HawkEye 360; GPS; miniature CubeSats for education and research; and military/defense satellites.

Loading next visibility...
Identifier
58992, 2024-034A
Orbit
SSO
Country
Flag of JPJP / JPN
Related business
Manufacturer
Astroscale
Mission
Operational Commercial Technology
Bus & Motor
ELSA, Unknown motor
Mass
150 kg wet, ~120 kg dry
Launch date (UTC)
2024-02-18 (2 years ago)
Launch vehicle
ELECTRON
Launch site
Rocket Lab Launch Complex (RLLC)
Object type
Payload
Rocket body
Debris
Shape & HBR
Box + 2 Pan, 2.0 m
Radar Cross Section
1.913 m², Medium (>0.1 m² and < 1m²)

Expand to show TLE details & history
Last TLE update: 7 hours ago

TLE from 7 hours ago
0 ADRAS-J
1 58992U 24034A   26166.48261578  .00108128  00000-0  13103-2 0  9998
2 58992  98.2210 197.2943 0163880 118.7575 243.0246 15.45774473127325
Epoch: 2026-06-15T11:34Z
TLE epoch observation values (Epoch: 2026-06-15T11:34:58.003Z)
Latitude
-0.00004°
Longitude
119.78426°
Altitude
484.256 km
Speed
7.594 km/s
True Right ascension
13h 09m 10s
True Declination
0° 00' 00"
Sunlit
Object was in partial shadow at epoch
Visualization orbit readout
Latitude
Unknown
Longitude
Unknown
Altitude
Unknown
Speed
Unknown
Apparent Right ascension
Unknown
Apparent Declination
Unknown
Sunlit
N/A
Visualization observer readout
Local Sidereal Time
05:06:32
Azimuth
Unknown
Elevation
Unknown
Doppler factor
Unknown
Orbital elements
Apogee altitude
537.578 km
Perigee altitude
314.564 km
Semi-major axis
6,804.208 km
Eccentricity
0.01639
Inclination
98.221°
RAAN
197.2943°
Arg. of periapsis
118.7575°
True anomaly
241.36663°
Mean anomaly
243.0246°
Eccentric anomaly
242.19406°
Mean motion
3.86702 °/min
Orbital period
93.09 mins
BSTAR
0.0013103
Loading maneuver chart data...
Computing Atmospheric mass density...
Loading historical data...
Loading historical data...
Loading historical data...
Loading historical data...
Loading historical data...
Loading historical data...
Loading historical data...
Other satellites on launch #34 in the year 2024 (2024-02-18 UTC)

Documentation

Showing up to 5 results
|